Starlink 32386

operational
NORAD ID: 61213 Int'l Des: 2024-171 Owner: SPXS Country: US Constellation: starlink
LEOCIRCULAR

关于 Starlink 32386

正在加载描述...

实时位置

正在加载3D地球...

即将过境

高度历史

Altitude vs Time

uPlot chart will show altitude changes over time

两行轨道根数

1 61213U 24171P 25304.43349877 .00008391 00000-0 29493-3 0 9998
2 61213 53.1602 202.4801 0001317 101.0542 259.0606 15.30218799 62588
Epoch: Oct 31, 2025 • Age: 14 hours

当前状态

高度 489.0 km
速度 7.62 km/s
星下点 -40.38°S, 19.23°E
发射日期 Sep 20, 2024
运行时间 1.1 years
类型 internet

技术详情

分类 Payload
质量 730.00 kg
干质量 700.00 kg
总质量 730.00 kg
长度 0.30 m
直径 4.10 m
跨度 29.00 m
形状 Box + pan
制造商 SPXS
平台类型 Starlink V2M
阶段状态 In Orbit
所有者/国家 SPXS/US

大型星座

Loading constellations...